Theta_e
324 323 323 323 325 328 330 331 333 335 338 339 341 342 343 343 345 346 346 347 346 344 343 342 343 340 336 334 330 328 331 334 343 345 343 338 334 329 323 325 325 325 324
326 323 322 321 321 320 320 320 322 327 331 334 337 340 342 343 343 344 347 347 348 347 345 343 344 343 339 338 333 329 333 335 337 342 343 341 337 333 327 326 325 325 325
325 325 323 322 321 321 321 320 319 319 320 325 331 336 338 341 343 344 346 347 347 347 346 343 341 342 342 341 336 333 334 335 339 345 345 343 340 337 332 327 326 327 328
323 324 323 323 323 323 321 320 319 318 317 318 321 326 333 336 339 342 343 346 347 345 345 345 344 342 341 342 340 337 334 335 340 345 345 344 342 339 336 331 327 328 329
323 324 323 323 323 323 321 320 318 318 317 318 318 319 323 330 335 337 340 343 344 345 344 344 345 343 339 342 341 340 339 337 340 342 344 345 344 342 340 335 329 328 330
325 324 324 323 323 321 319 318 318 318 318 318 319 318 319 321 327 334 337 340 342 343 344 343 343 342 340 342 341 341 340 338 339 340 341 343 345 344 342 338 335 330 331
325 325 323 320 319 318 318 317 317 317 318 317 318 319 318 320 323 327 332 334 338 340 341 342 344 343 341 342 341 341 341 339 339 339 340 341 341 343 343 341 337 332 331
322 321 318 317 317 316 316 316 316 317 318 318 318 319 322 320 320 323 328 333 335 337 338 339 341 342 342 341 344 343 342 341 341 341 340 340 341 343 343 341 339 335 332
318 316 315 315 314 314 314 315 315 316 318 318 319 320 323 323 322 322 327 329 333 335 336 337 338 339 343 344 341 343 343 342 341 341 343 341 341 341 343 342 338 332 334
314 313 312 312 312 313 313 313 313 313 314 316 318 319 320 321 326 327 324 328 335 337 339 338 337 340 342 343 342 342 344 341 339 340 340 341 342 343 342 343 335 334 336
311 310 310 310 310 310 309 308 308 309 309 310 313 318 321 321 323 326 327 327 327 334 335 339 339 340 343 344 343 345 342 340 338 337 338 340 341 341 340 342 339 337 339
308 307 308 307 306 307 307 308 308 308 308 308 310 313 317 320 322 323 325 328 328 328 332 333 336 340 340 341 343 342 338 337 337 337 337 338 341 343 341 341 340 340 338
304 305 304 305 305 305 305 306 306 306 307 307 306 309 312 315 318 320 321 324 328 326 326 332 338 338 337 340 340 340 337 337 337 338 337 337 340 342 343 341 339 337 336
303 303 303 303 303 303 303 303 304 304 305 305 306 307 310 310 312 314 318 322 325 328 328 334 335 336 336 339 339 338 338 336 335 335 334 334 337 338 337 335 332 331 325
302 302 302 302 302 302 303 303 303 304 304 305 306 308 309 308 310 313 318 321 324 330 331 330 334 335 337 338 338 337 337 333 332 333 334 334 333 331 330 329 325 318 313
301 301 302 302 302 302 302 303 303 304 304 305 305 307 308 309 310 314 315 319 320 325 331 330 333 335 332 333 334 335 334 331 330 329 328 327 326 323 317 311 309 308 308
301 301 301 302 301 301 302 302 303 304 304 305 306 307 308 309 311 311 313 316 318 319 331 330 331 332 330 330 330 330 330 328 326 323 317 313 311 309 308 308 308 308 307
300 300 300 300 301 301 301 302 303 304 305 306 306 307 308 311 312 313 313 315 320 321 326 331 330 329 326 326 326 324 321 320 317 313 311 310 308 308 308 308 308 307 307
300 300 301 300 301 301 302 302 303 303 305 306 306 308 309 311 312 314 314 317 320 322 325 327 329 326 319 321 318 317 316 314 312 310 309 309 309 309 308 308 307 307 308
300 300 300 300 300 301 302 303 304 304 306 307 307 308 309 311 313 314 316 319 322 323 324 327 327 325 319 314 315 312 311 311 311 311 310 310 309 309 310 310 309 308 307
300 300 300 300 300 301 302 304 307 305 306 308 309 309 310 311 314 315 316 318 322 324 326 325 324 319 315 312 313 312 311 310 310 311 311 311 311 311 311 311 311 309 307
300 300 300 300 300 300 303 305 307 308 310 311 312 313 314 314 316 315 314 315 317 319 326 326 324 321 315 313 312 311 310 309 311 309 311 310 309 309 309 310 311 311 309
300 300 300 300 300 301 303 304 305 305 306 306 307 308 309 310 311 313 315 313 315 317 319 322 317 313 311 310 310 310 309 309 310 309 310 312 312 313 313 309 309 310 311
300 300 300 300 301 301 304 304 305 305 305 305 305 306 306 307 307 307 307 307 308 310 310 310 310 310 310 310 310 309 308 309 311 311 314 313 312 312 311 310 307 305 305
300 300 300 300 300 301 305 305 304 305 305 305 305 306 306 306 306 306 306 306 306 306 306 307 307 307 308 308 309 310 311 312 312 312 312 312 311 311 310 310 308 306 304
300 300 301 300 300 301 304 306 305 305 305 305 305 306 306 306 307 307 307 307 308 309 308 308 308 309 307 308 310 312 311 311 311 311 311 311 310 310 310 310 308 307 305
Wind_Speed
11 11 12 13 14 15 16 18 18 19 20 22 23 25 27 28 29 29 28 24 23 29 30 28 27 26 28 28 30 31 30 32 34 34 33 32 30 27 26 24 23 22 21
9 12 13 14 15 15 16 18 20 21 23 23 25 25 26 27 28 29 29 28 27 28 28 26 25 25 26 26 28 29 29 31 33 34 35 33 33 31 28 27 26 25 23
10 12 16 17 17 17 19 20 20 21 23 24 26 26 28 29 30 29 30 30 27 27 26 24 25 25 25 27 26 28 27 28 30 35 36 35 34 33 31 30 29 27 26
12 15 18 20 21 22 23 23 23 23 24 24 26 28 28 27 30 29 29 29 28 28 24 24 24 24 24 25 27 28 29 28 27 30 34 35 34 35 33 33 33 31 31
16 17 21 23 23 25 26 26 26 25 26 26 27 28 29 31 30 31 32 31 30 29 28 26 25 26 24 23 25 28 29 29 29 30 30 33 35 38 37 37 37 37 34
20 21 24 26 26 29 30 30 28 30 30 29 28 29 29 31 32 31 31 33 34 32 30 29 23 23 25 26 25 25 29 30 30 30 31 32 36 39 40 38 38 38 33
23 23 26 29 30 32 32 32 32 31 30 28 28 28 30 30 33 35 35 34 34 34 33 30 27 27 25 25 24 25 25 29 32 32 32 33 33 36 42 43 37 37 37
25 28 31 32 32 32 32 32 31 31 30 27 26 24 15 22 28 32 33 33 34 34 35 34 30 28 27 25 23 24 27 30 31 34 34 32 34 35 40 45 37 35 39
30 32 32 32 30 29 31 29 28 28 28 28 27 22 10 13 11 21 25 31 28 32 34 32 28 27 27 27 26 22 27 28 29 33 34 34 34 34 38 44 34 33 36
31 32 30 29 29 28 28 27 24 22 21 22 27 28 31 28 14 12 23 21 18 23 23 25 24 25 25 23 24 21 21 22 25 29 32 35 35 33 33 40 38 30 30
28 28 29 28 27 26 25 24 25 24 23 25 27 27 31 28 28 15 13 12 24 20 22 22 22 20 18 17 18 19 23 22 22 22 23 28 32 32 28 38 42 39 30
29 28 26 25 26 26 26 25 23 22 24 23 25 25 27 19 15 14 14 15 17 25 20 24 23 19 17 18 18 20 21 23 24 24 22 23 30 28 26 29 35 30 29
26 27 26 27 27 28 29 28 27 26 25 24 26 25 23 23 25 27 21 12 12 24 27 18 23 14 22 15 18 21 18 20 20 20 19 20 24 25 27 27 25 21 18
26 28 29 30 31 31 30 30 28 27 25 26 26 28 23 22 23 23 26 16 12 13 20 14 13 21 19 18 18 19 13 18 18 18 17 18 19 19 19 18 17 19 19
28 30 31 33 33 32 31 30 29 28 25 25 25 24 23 24 24 27 29 25 13 12 12 18 15 15 13 13 14 11 10 12 14 14 14 16 16 15 15 16 18 16 13
29 31 31 30 31 30 30 29 29 27 26 26 25 24 24 24 25 22 24 24 21 15 11 11 11 8 7 11 11 10 10 14 15 14 15 15 16 16 16 15 13 11 10
29 30 30 29 30 31 29 28 28 28 28 27 25 23 25 25 22 20 21 27 23 23 11 12 11 5 4 8 13 15 11 12 17 16 18 17 16 17 16 14 12 11 12
29 29 30 30 30 29 29 27 26 25 25 24 23 22 23 21 22 22 21 23 24 25 19 12 11 5 3 9 14 13 15 14 13 14 14 14 15 13 12 11 11 12 12
29 29 29 30 31 30 30 28 27 25 23 24 23 21 21 19 21 20 20 22 23 24 21 13 9 4 4 10 12 14 13 15 12 15 11 10 10 10 10 10 11 12 12
28 29 29 29 30 31 32 31 28 22 20 20 22 22 20 20 19 16 15 17 19 20 20 18 9 5 3 6 15 17 14 14 12 10 10 9 9 9 10 12 13 13 14
26 27 28 28 28 28 27 29 14 9 12 11 13 16 17 19 18 16 13 13 11 11 13 11 7 3 4 7 12 10 12 13 10 9 8 7 8 7 9 11 14 16 16
26 28 28 29 30 27 26 21 10 7 4 3 5 6 8 10 14 17 19 18 19 18 10 9 8 4 6 13 13 13 14 7 2 7 8 8 9 10 10 11 13 15 17
28 29 29 31 29 28 24 22 19 18 17 14 12 8 8 8 9 9 11 11 7 2 5 7 11 9 12 17 21 18 13 4 3 10 10 8 12 8 7 4 6 8 11
27 27 28 31 29 30 26 25 25 24 26 25 24 23 23 23 21 23 28 31 31 27 22 21 18 16 18 18 14 14 14 11 9 11 8 4 7 9 5 5 6 7 9
28 28 29 31 31 32 28 26 28 25 25 27 28 28 26 29 27 26 28 28 27 30 31 30 26 21 17 15 12 13 13 11 8 5 2 3 5 7 5 6 6 4 8
26 26 28 31 30 32 31 28 30 26 26 24 25 31 27 27 28 25 24 24 24 23 24 24 26 19 19 16 12 5 2 6 9 5 3 3 4 4 3 4 3 4 7
Wind_Direction
357 346 338 327 317 309 305 302 298 294 289 284 278 273 269 265 264 263 261 263 260 261 262 259 253 250 246 246 246 247 245 243 243 241 238 237 238 235 229 223 219 216 214
347 345 337 334 328 322 316 308 302 296 290 286 280 274 270 266 263 262 259 257 250 260 262 256 248 247 249 248 244 244 245 241 242 244 241 238 237 238 236 227 222 220 217
329 329 327 325 323 321 314 309 304 298 291 285 279 276 272 267 263 262 258 257 260 253 258 253 248 247 246 248 243 241 242 242 244 240 241 239 239 240 238 233 229 222 219
311 312 313 313 312 311 311 307 302 297 293 289 284 277 275 270 268 259 257 256 252 253 254 251 254 249 247 245 242 242 241 241 243 240 242 241 239 239 241 238 232 229 221
299 299 302 304 302 300 301 300 298 296 294 288 282 277 272 267 263 261 257 251 251 251 250 247 250 256 248 238 240 238 239 237 237 243 243 241 241 240 240 238 232 233 223
295 294 295 296 295 294 292 293 292 289 287 284 282 279 276 270 265 261 259 254 251 248 247 248 246 247 249 241 236 236 233 228 234 239 243 242 241 240 235 236 240 228 221
296 294 293 295 292 289 290 288 285 284 281 278 278 276 272 263 257 256 254 253 252 248 246 247 244 246 245 239 242 238 231 230 234 238 241 242 246 246 235 239 238 228 230
295 295 296 294 292 290 287 285 283 282 278 274 271 276 278 269 258 251 250 248 248 247 246 241 243 245 245 243 233 241 237 230 231 238 241 242 245 246 240 237 236 237 231
295 295 295 294 291 287 284 283 281 278 279 276 269 266 271 263 277 263 242 240 245 243 243 247 243 240 241 240 244 238 243 238 232 232 236 240 242 245 239 236 233 236 235
295 295 294 294 292 289 288 285 284 287 287 284 279 262 253 264 273 276 268 265 238 251 253 250 243 237 237 233 235 234 232 228 228 228 229 234 239 242 242 235 226 233 240
296 298 296 295 293 293 290 292 283 280 280 281 273 273 274 254 241 249 261 265 267 238 238 231 237 220 219 224 221 227 233 235 228 227 228 227 233 237 235 230 232 240 251
304 300 300 303 297 293 290 290 286 278 273 273 277 273 267 264 258 242 249 250 258 265 256 227 235 234 234 223 233 241 244 238 239 233 231 227 228 230 232 230 233 243 245
306 305 306 303 299 297 293 290 287 281 272 272 271 269 267 270 262 274 266 261 263 249 249 259 260 243 246 241 240 244 246 247 240 234 230 225 224 217 221 225 233 237 235
305 305 303 301 298 295 292 290 284 279 273 267 265 261 254 260 267 266 273 264 252 255 258 241 256 242 241 237 240 245 234 246 237 232 231 216 210 210 209 211 202 190 162
305 304 302 300 297 294 290 285 281 276 272 266 268 258 250 260 259 256 253 267 271 257 248 246 234 236 234 229 237 236 222 224 216 184 172 184 190 208 210 208 184 164 158
307 307 305 301 299 295 293 287 279 275 271 267 265 259 248 250 252 244 252 251 256 269 265 273 229 222 224 232 230 212 195 186 188 187 184 180 175 173 166 163 163 165 164
314 310 308 307 303 299 295 290 281 274 263 261 258 258 254 250 245 244 253 246 242 252 251 256 250 204 202 214 198 189 177 173 180 170 162 159 161 167 162 163 164 170 174
320 316 313 310 306 302 297 289 282 274 263 258 255 253 256 252 244 239 246 253 242 242 250 249 238 196 181 208 209 191 170 158 159 165 171 167 171 173 178 173 169 172 167
324 321 320 316 314 311 306 298 285 277 270 260 256 253 254 254 251 243 243 245 247 236 243 248 220 189 171 187 167 163 154 142 141 159 165 173 179 182 188 189 181 176 175
327 329 329 325 323 321 317 308 289 274 276 261 254 253 252 257 256 251 254 265 246 232 234 242 241 182 156 168 171 148 139 148 135 158 175 191 193 198 206 214 209 203 196
341 342 338 339 339 337 335 341 354 249 277 271 259 254 255 256 255 248 249 259 260 249 236 213 186 151 152 150 165 163 139 146 143 161 158 181 177 202 219 218 215 212 212
355 350 348 348 349 350 5 16 17 11 346 326 306 290 266 266 259 248 247 257 269 287 265 220 194 178 164 163 147 138 119 119 119 187 180 208 206 221 223 223 217 222 226
0 357 356 360 356 5 22 35 46 54 55 51 46 46 56 63 77 106 141 140 123 146 235 194 105 107 98 117 128 135 145 161 160 188 185 180 182 187 171 171 179 206 220
5 2 1 3 6 18 37 47 47 50 56 59 63 68 72 71 77 82 89 86 79 75 82 94 99 108 126 131 144 148 160 171 174 175 202 162 181 167 185 184 232 225 216
12 11 14 15 15 19 41 51 47 45 53 54 63 72 71 79 82 82 81 82 82 81 84 85 84 91 99 109 133 150 184 199 128 151 185 163 181 186 221 239 184 247 217
4 16 24 26 25 29 38 54 57 46 48 51 57 68 74 82 84 81 84 84 83 89 94 91 84 78 78 83 73 79 356 136 146 175 140 254 180 221 218 161 170 223 214